Showing default

BRO-5, 51061

Orbit data source: Space-Track

BRO-5, 51061 is a payload satellite owned by Unseen Labs (FR) in SSO that was launched on Thu, 13 Jan 2022 UTC via an FALCON 9 launch vehicle from the Air Force Eastern Test Range (AFETR). Payload-class satellites include a variety of spacecraft equipped with specific instruments for various scientific and technological missions. These include communications satellites like Starlink; space stations such as the ISS; scientific satellites like the Hubble; Earth observation satellites from companies like Planet Labs, Umbra, and HawkEye 360; GPS; miniature CubeSats for education and research; and military/defense satellites.

Loading next visibility...
Identifier
51061, 2022-002CF
Orbit
SSO
Country
Flag of FRFR
Related business
Manufacturer
GOMSpace
Mission
Operational Commercial Sigint
Bus & Motor
CUBESAT 6U, Unknown motor
Mass
10 kg wet, ~10 kg dry
Launch date (UTC)
2022-01-13 (5 years ago)
Launch vehicle
FALCON 9
Launch site
Air Force Eastern Test Range (AFETR)
Object type
Payload
Rocket body
Debris
Shape & HBR
Box, 0.2 m
Radar Cross Section
0.080 m², Medium (>0.1 m² and < 1m²)

Expand to show TLE details & history
Last TLE update: 10 hours ago

TLE from 10 hours ago
0 BRO-5
1 51061U 22002CF  26207.60751291  .00014179  00000-0  26147-3 0  9992
2 51061  97.2977 281.6785 0006536 163.1699 196.9770 15.49215996252355
Epoch: 2026-07-26T14:34Z
TLE epoch observation values (Epoch: 2026-07-26T14:34:49.115Z)
Latitude
-0.00005°
Longitude
118.67085°
Altitude
426.402 km
Speed
7.653 km/s
True Right ascension
18h 46m 42s
True Declination
0° 00' 00"
Sunlit
Object was in full shadow at epoch
Visualization orbit readout
Latitude
Unknown
Longitude
Unknown
Altitude
Unknown
Speed
Unknown
Apparent Right ascension
Unknown
Apparent Declination
Unknown
Sunlit
N/A
Visualization observer readout
Local Sidereal Time
13:27:35
Azimuth
Unknown
Elevation
Unknown
Doppler factor
Unknown
Orbital elements
Apogee altitude
420.381 km
Perigee altitude
411.5 km
Semi-major axis
6,794.078 km
Eccentricity
0.00065
Inclination
97.2977°
RAAN
281.6785°
Arg. of periapsis
163.1699°
True anomaly
196.95515°
Mean anomaly
196.977°
Eccentric anomaly
196.96607°
Mean motion
3.87568 °/min
Orbital period
92.89 mins
BSTAR
0.00026147
Loading maneuver chart data...
Computing Atmospheric mass density...

Documentation

Showing up to 5 results
|